Simultaneous Nadir Overpasses (SNOs) Predictions

Prediction of SNOs between NOAA-19 and TERRA Satellite Orbit:

Table of predicted SNOs for the next 14.0 days since TLE Epoch: 6/29/2024
Index Date (NOAA-19) Time (NOAA-19) Lat,Lon (NOAA-19) SZA (NOAA-19 ) Date (TERRA) Time (TERRA) Lat,Lon (TERRA) SZA (TERRA ) Distance(km) Time Diff (sec)
1 06/29/2024 13:41:05 78.41, -15.36 55.33 06/29/2024 13:40:47 78.41, -15.34 55.33 0.56 18
2 07/01/2024 16:40:06 78.25, -61.05 55.27 07/01/2024 16:40:33 78.23, -61.16 55.25 3.04 27
3 07/01/2024 17:30:56 -78.51, 107.87 124.41 07/01/2024 17:29:49 -78.50, 107.80 124.44 1.68 67
4 07/03/2024 19:39:08 78.03,-106.97 55.19 07/03/2024 19:40:19 78.02,-107.06 55.19 2.21 71
5 07/03/2024 20:29:58 -78.29, 61.78 124.51 07/03/2024 20:29:35 -78.30, 61.86 124.50 2.22 23
6 07/05/2024 23:28:58 -78.12, 16.14 124.50 07/05/2024 23:29:20 -78.11, 16.04 124.52 2.70 22
7 07/08/2024 02:28:02 -77.80, -30.36 124.64 07/08/2024 02:29:07 -77.81, -30.24 124.62 3.05 65
8 07/08/2024 03:18:52 78.26, 139.48 55.89 07/08/2024 03:18:17 78.25, 139.39 55.88 2.28 35
9 07/10/2024 06:17:54 78.01, 93.40 55.87 07/10/2024 06:18:02 78.01, 93.37 55.87 0.83 8
10 07/12/2024 09:16:56 77.76, 47.33 55.87 07/12/2024 09:17:47 77.75, 47.28 55.87 1.35 51



Historial Predications of SNOs between NOAA-19 and TERRA
